This is the latest recevied weather packets stored in our database for station/object DB0SVX. If no packets are shown the sender has not sent any weather packets the latest 10 day(s).
| Time | Temp. | Humidity | Pressure | Rain* | Wind** | Luminosity | Snow |
|---|---|---|---|---|---|---|---|
| 1777674321 | 7.22° C | 52% | 1021.9 hPa | 0 mm | - | - | - |
| 1777673420 | 7.78° C | 50% | 1022 hPa | 0 mm | - | - | - |
| 1777672520 | 7.78° C | 50% | 1021.9 hPa | 0 mm | - | - | - |
| 1777671620 | 7.78° C | 49% | 1021.9 hPa | 0 mm | - | - | - |
| 1777670720 | 8.33° C | 48% | 1022 hPa | 0 mm | - | - | - |
| 1777669820 | 8.89° C | 48% | 1022 hPa | 0 mm | - | - | - |
| 1777668920 | 9.44° C | 46% | 1022 hPa | 0 mm | - | - | - |
| 1777668020 | 10° C | 45% | 1022 hPa | 0 mm | - | - | - |
| 1777667120 | 10.56° C | 44% | 1022.2 hPa | 0 mm | - | - | - |
| 1777666220 | 11.11° C | 44% | 1022 hPa | 0 mm | - | - | - |
| 1777665320 | 11.67° C | 42% | 1022.2 hPa | 0 mm | - | - | - |
| 1777664420 | 12.22° C | 41% | 1022 hPa | 0 mm | - | - | - |
| 1777663520 | 12.78° C | 40% | 1021.7 hPa | 0 mm | - | - | - |
| 1777662620 | 13.33° C | 39% | 1021.7 hPa | 0 mm | - | - | - |
| 1777661720 | 13.89° C | 38% | 1021.7 hPa | 0 mm | - | - | - |
| 1777660820 | 15° C | 36% | 1021.5 hPa | 0 mm | - | - | - |
| 1777659920 | 15.56° C | 34% | 1021.5 hPa | 0 mm | - | - | - |
| 1777659020 | 16.67° C | 33% | 1021.5 hPa | 0 mm | - | - | - |
| 1777658120 | 17.78° C | 29% | 1021.4 hPa | 0 mm | - | - | - |
| 1777657220 | 20.56° C | 26% | 1021.4 hPa | 0 mm | - | - | - |
| 1777656320 | 25.56° C | 22% | 1021.5 hPa | 0 mm | - | - | - |
| 1777655420 | 26.11° C | 21% | 1021.4 hPa | 0 mm | - | - | - |
| 1777654520 | 27.78° C | 20% | 1021.2 hPa | 0 mm | - | - | - |
| 1777653620 | 28.33° C | 20% | 1021.5 hPa | 0 mm | - | - | - |
| 1777652720 | 29.44° C | 19% | 1021.5 hPa | 0 mm | - | - | - |
* Rain latest hour (hover to see other rain measurements)
** Current wind speed in m/s (hover to see current wind gust speed)